| time (UTC) | temp F | wind direction | speed MPH | gust MPH | rain 1hr in | rain 24hr in | rain mn in | humidity % | barometer mb |
| 20260503024517 | 45 | 91 | 0.0 | 2.0 | 0.00 | 0.00 | 0.00 | 77 | 1016.0 |
| 20260503023516 | 46 | 91 | 0.0 | 1.0 | 0.00 | 0.00 | 0.00 | 77 | 1016.1 |
| 20260503022517 | 45 | 0.0 | 0.0 | 0.00 | 0.00 | 0.00 | 77 | 1016.1 | |
| 20260503021535 | 45 | 91 | 1.0 | 2.0 | 0.00 | 0.00 | 0.00 | 77 | 1016.1 |
| 20260503020516 | 45 | 0.0 | 0.0 | 0.00 | 0.00 | 0.00 | 76 | 1016.2 | |
| 20260503015516 | 45 | 91 | 0.0 | 1.0 | 0.00 | 0.00 | 0.00 | 76 | 1016.3 |
| 20260503014535 | 46 | 91 | 0.0 | 1.0 | 0.00 | 0.00 | 0.00 | 75 | 1016.2 |
| 20260503013517 | 46 | 0.0 | 0.0 | 0.00 | 0.00 | 0.00 | 74 | 1016.1 | |
| 20260503012536 | 47 | 0.0 | 0.0 | 0.00 | 0.00 | 0.00 | 73 | 1016.1 | |
| 20260503011601 | 47 | 91 | 0.0 | 2.0 | 0.00 | 0.00 | 0.00 | 73 | 1016.2 |
| 20260503010536 | 47 | 91 | 0.0 | 2.0 | 0.00 | 0.00 | 0.00 | 74 | 1016.2 |
| 20260503005535 | 47 | 0.0 | 0.0 | 0.00 | 0.00 | 0.00 | 74 | 1016.3 | |
| 20260503004516 | 47 | 91 | 1.0 | 3.0 | 0.00 | 0.00 | 0.00 | 73 | 1016.3 |
| 20260503003536 | 48 | 90 | 0.0 | 1.0 | 0.00 | 0.00 | 0.00 | 72 | 1016.3 |
| 20260503002517 | 48 | 90 | 1.0 | 3.0 | 0.00 | 0.00 | 0.00 | 73 | 1016.2 |
| 20260503001516 | 48 | 0.0 | 0.0 | 0.00 | 0.00 | 0.00 | 73 | 1016.3 | |
| 20260503000515 | 48 | 0.0 | 0.0 | 0.00 | 0.00 | 0.00 | 72 | 1016.4 | |
| 20260502235515 | 49 | 0.0 | 0.0 | 0.00 | 0.00 | 0.00 | 71 | 1016.5 | |
| 20260502234536 | 49 | 90 | 0.0 | 1.0 | 0.00 | 0.00 | 0.00 | 71 | 1016.5 |
| 20260502233516 | 49 | 90 | 2.0 | 3.0 | 0.00 | 0.00 | 0.00 | 71 | 1016.7 |
| 20260502232520 | 49 | 90 | 1.0 | 3.0 | 0.00 | 0.00 | 0.00 | 71 | 1016.8 |
| 20260502231515 | 49 | 90 | 0.0 | 2.0 | 0.00 | 0.00 | 0.00 | 72 | 1016.9 |
| 20260502230516 | 50 | 90 | 0.0 | 1.0 | 0.00 | 0.00 | 0.00 | 71 | 1017.0 |
| 20260502225515 | 50 | 0.0 | 0.0 | 0.00 | 0.00 | 0.00 | 71 | 1017.0 | |
| 20260502224516 | 50 | 0.0 | 0.0 | 0.00 | 0.00 | 0.00 | 72 | 1017.0 | |
| 20260502223516 | 51 | 90 | 1.0 | 2.0 | 0.00 | 0.00 | 0.00 | 70 | 1017.1 |
| 20260502222516 | 51 | 0.0 | 0.0 | 0.00 | 0.00 | 0.00 | 70 | 1017.2 | |
| 20260502221515 | 51 | 90 | 0.0 | 1.0 | 0.00 | 0.00 | 0.00 | 69 | 1017.3 |
| 20260502220516 | 51 | 90 | 1.0 | 2.0 | 0.00 | 0.00 | 0.00 | 69 | 1017.3 |
| 20260502215515 | 52 | 90 | 0.0 | 1.0 | 0.00 | 0.00 | 0.00 | 69 | 1017.3 |
| 20260502214515 | 52 | 90 | 1.0 | 2.0 | 0.00 | 0.00 | 0.00 | 67 | 1017.4 |
| 20260502213536 | 53 | 89 | 0.0 | 1.0 | 0.00 | 0.00 | 0.00 | 68 | 1017.5 |
| 20260502212518 | 53 | 0.0 | 0.0 | 0.00 | 0.00 | 0.00 | 68 | 1017.5 | |
| 20260502211517 | 53 | 89 | 1.0 | 2.0 | 0.00 | 0.00 | 0.00 | 67 | 1017.5 |
| 20260502210515 | 54 | 89 | 1.0 | 2.0 | 0.00 | 0.00 | 0.00 | 66 | 1017.5 |
| 20260502205516 | 53 | 77 | 1.0 | 2.0 | 0.00 | 0.00 | 0.00 | 67 | 1017.7 |
| 20260502204515 | 53 | 77 | 0.0 | 2.0 | 0.00 | 0.00 | 0.00 | 67 | 1017.7 |
| 20260502203517 | 55 | 76 | 0.0 | 3.0 | 0.00 | 0.00 | 0.00 | 64 | 1017.8 |
| 20260502202515 | 56 | 66 | 2.0 | 4.0 | 0.00 | 0.00 | 0.00 | 65 | 1017.8 |
| 20260502201517 | 56 | 62 | 1.0 | 2.0 | 0.00 | 0.00 | 0.00 | 64 | 1017.8 |
| 20260502200516 | 56 | 61 | 0.0 | 1.0 | 0.00 | 0.00 | 0.00 | 63 | 1017.9 |
| 20260502195535 | 57 | 0.0 | 0.0 | 0.00 | 0.00 | 0.00 | 61 | 1017.9 | |
| 20260502194516 | 58 | 0.0 | 0.0 | 0.00 | 0.00 | 0.00 | 60 | 1017.8 | |
| 20260502193515 | 59 | 60 | 1.0 | 3.0 | 0.00 | 0.00 | 0.00 | 58 | 1017.8 |
| 20260502192515 | 60 | 60 | 0.0 | 1.0 | 0.00 | 0.00 | 0.00 | 56 | 1017.8 |
| 20260502191515 | 60 | 0.0 | 0.0 | 0.00 | 0.00 | 0.00 | 54 | 1017.7 | |
| 20260502190517 | 62 | 0.0 | 0.0 | 0.00 | 0.00 | 0.00 | 52 | 1017.7 | |
| 20260502185516 | 64 | 60 | 1.0 | 2.0 | 0.00 | 0.00 | 0.00 | 46 | 1017.6 |
| 20260502184515 | 64 | 60 | 1.0 | 2.0 | 0.00 | 0.00 | 0.00 | 44 | 1017.6 |
| 20260502183536 | 65 | 60 | 2.0 | 4.0 | 0.00 | 0.00 | 0.00 | 44 | 1017.5 |
| 20260502182515 | 67 | 60 | 1.0 | 2.0 | 0.00 | 0.00 | 0.00 | 41 | 1017.5 |
| 20260502181615 | 68 | 61 | 2.0 | 3.0 | 0.00 | 0.00 | 0.00 | 38 | 1017.5 |
| 20260502180516 | 70 | 62 | 2.0 | 3.0 | 0.00 | 0.00 | 0.00 | 35 | 1017.5 |
| 20260502170515 | 75 | 62 | 3.0 | 5.0 | 0.00 | 0.00 | 0.00 | 27 | 1017.4 |
| 20260502163516 | 75 | 24 | 4.0 | 9.0 | 0.00 | 0.00 | 0.00 | 29 | 1017.5 |
| 20260502162515 | 75 | 39 | 4.0 | 7.0 | 0.00 | 0.00 | 0.00 | 30 | 1017.7 |
| 20260502161517 | 75 | 32 | 5.0 | 10.0 | 0.00 | 0.00 | 0.00 | 29 | 1017.9 |
| 20260502160515 | 75 | 27 | 4.0 | 9.0 | 0.00 | 0.00 | 0.00 | 30 | 1017.9 |
| 20260502151535 | 75 | 319 | 3.0 | 7.0 | 0.00 | 0.00 | 0.00 | 27 | 1018.5 |
| 20260502150516 | 75 | 10 | 6.0 | 11.0 | 0.00 | 0.00 | 0.00 | 28 | 1018.6 |
| 20260502130516 | 75 | 60 | 2.0 | 4.0 | 0.00 | 0.00 | 0.00 | 30 | 1020.0 |
| 20260502123516 | 76 | 61 | 4.0 | 7.0 | 0.00 | 0.00 | 0.00 | 29 | 1020.4 |
| 20260502122536 | 76 | 353 | 4.0 | 8.0 | 0.00 | 0.00 | 0.00 | 31 | 1020.6 |
| 20260502121516 | 76 | 32 | 3.0 | 8.0 | 0.00 | 0.00 | 0.00 | 30 | 1020.6 |
| 20260502120517 | 75 | 327 | 5.0 | 8.0 | 0.00 | 0.00 | 0.00 | 30 | 1020.7 |
| 20260502115536 | 75 | 23 | 4.0 | 9.0 | 0.00 | 0.00 | 0.00 | 33 | 1020.8 |
| 20260502114515 | 75 | 360 | 5.0 | 9.0 | 0.00 | 0.00 | 0.00 | 31 | 1021.0 |
| 20260502113517 | 74 | 6 | 4.0 | 8.0 | 0.00 | 0.00 | 0.00 | 32 | 1021.0 |
| 20260502112515 | 74 | 43 | 4.0 | 11.0 | 0.00 | 0.00 | 0.00 | 32 | 1021.3 |
| 20260502111517 | 75 | 8 | 4.0 | 8.0 | 0.00 | 0.00 | 0.00 | 31 | 1021.3 |
| 20260502110536 | 75 | 81 | 2.0 | 4.0 | 0.00 | 0.00 | 0.00 | 31 | 1021.4 |
| 20260502105517 | 73 | 71 | 2.0 | 6.0 | 0.00 | 0.00 | 0.00 | 35 | 1021.5 |
| 20260502104516 | 72 | 347 | 4.0 | 8.0 | 0.00 | 0.00 | 0.00 | 34 | 1021.7 |
| 20260502103515 | 73 | 13 | 3.0 | 5.0 | 0.00 | 0.00 | 0.00 | 34 | 1021.8 |
| 20260502102516 | 73 | 308 | 3.0 | 6.0 | 0.00 | 0.00 | 0.00 | 36 | 1021.9 |
| 20260502101515 | 71 | 31 | 2.0 | 4.0 | 0.00 | 0.00 | 0.00 | 35 | 1022.0 |
| 20260502100518 | 71 | 349 | 4.0 | 7.0 | 0.00 | 0.00 | 0.00 | 35 | 1022.2 |
| 20260502091518 | 69 | 50 | 2.0 | 5.0 | 0.00 | 0.00 | 0.00 | 43 | 1022.6 |
| 20260502090515 | 66 | 165 | 1.0 | 4.0 | 0.00 | 0.00 | 0.00 | 45 | 1022.6 |
| 20260502071516 | 58 | 130 | 2.0 | 4.0 | 0.00 | 0.00 | 0.00 | 54 | 1023.1 |
| 20260502070515 | 56 | 115 | 1.0 | 3.0 | 0.00 | 0.00 | 0.00 | 58 | 1023.1 |
| 20260502065536 | 55 | 155 | 1.0 | 5.0 | 0.00 | 0.00 | 0.00 | 59 | 1023.1 |
| 20260502064515 | 54 | 118 | 2.0 | 6.0 | 0.00 | 0.00 | 0.00 | 59 | 1023.2 |
| 20260502063518 | 53 | 119 | 2.0 | 6.0 | 0.00 | 0.00 | 0.00 | 63 | 1023.2 |
| 20260502062516 | 52 | 146 | 2.0 | 4.0 | 0.00 | 0.00 | 0.00 | 64 | 1023.2 |
| 20260502061517 | 51 | 123 | 1.0 | 4.0 | 0.00 | 0.00 | 0.00 | 65 | 1023.1 |
| 20260502060516 | 50 | 135 | 1.0 | 4.0 | 0.00 | 0.00 | 0.00 | 68 | 1023.2 |
| 20260502055515 | 49 | 129 | 1.0 | 4.0 | 0.00 | 0.00 | 0.00 | 70 | 1023.1 |
| 20260502054515 | 48 | 119 | 3.0 | 6.0 | 0.00 | 0.00 | 0.00 | 71 | 1023.0 |
| 20260502053515 | 47 | 115 | 2.0 | 5.0 | 0.00 | 0.00 | 0.00 | 72 | 1023.0 |
| 20260502052537 | 46 | 113 | 2.0 | 6.0 | 0.00 | 0.00 | 0.00 | 75 | 1023.1 |
| 20260502051515 | 43 | 141 | 1.0 | 3.0 | 0.00 | 0.00 | 0.00 | 79 | 1023.1 |
| 20260502050517 | 42 | 119 | 1.0 | 2.0 | 0.00 | 0.00 | 0.00 | 80 | 1023.1 |
| 20260502045517 | 41 | 156 | 0.0 | 2.0 | 0.00 | 0.00 | 0.00 | 80 | 1023.1 |
| 20260502044518 | 40 | 127 | 1.0 | 4.0 | 0.00 | 0.00 | 0.00 | 79 | 1023.0 |
| 20260502043515 | 41 | 118 | 0.0 | 2.0 | 0.00 | 0.00 | 0.00 | 79 | 1023.0 |
| 20260502042515 | 42 | 119 | 1.0 | 3.0 | 0.00 | 0.00 | 0.00 | 79 | 1023.0 |
| 20260502041515 | 41 | 108 | 1.0 | 4.0 | 0.00 | 0.00 | 0.00 | 80 | 1022.9 |
| 20260502040516 | 40 | 112 | 4.0 | 8.0 | 0.00 | 0.00 | 0.00 | 82 | 1022.9 |
| 20260502035516 | 38 | 135 | 1.0 | 3.0 | 0.00 | 0.00 | 0.00 | 82 | 1023.0 |
| 20260502034516 | 38 | 167 | 0.0 | 2.0 | 0.00 | 0.00 | 0.00 | 81 | 1023.0 |
| 20260502033518 | 39 | 0.0 | 0.0 | 0.00 | 0.00 | 0.00 | 81 | 1023.1 | |
| 20260502032517 | 39 | 170 | 0.0 | 1.0 | 0.00 | 0.00 | 0.00 | 81 | 1023.1 |
| 20260502031516 | 39 | 170 | 0.0 | 2.0 | 0.00 | 0.00 | 0.00 | 81 | 1023.0 |
| 20260502030515 | 39 | 0.0 | 0.0 | 0.00 | 0.00 | 0.00 | 81 | 1023.1 | |
| 20260502025516 | 39 | 0.0 | 0.0 | 0.00 | 0.00 | 0.00 | 80 | 1023.2 |